Terug naar catalogus

SL-12 DEB

ActiefHEO
NORAD 23616·DEBRIS·🇷🇺 Russia

Gelanceerd Jul 30, 1992 vanaf Baikonur Cosmodrome

Loading…

Volgende Passages (komende 24 uur)

TLE

VersSource: Space-Track

Epoch: Sep 13, 2026, 19:33 UTC

1 23616U 92047J   26256.81462231  .00048961  00000-0  14889-2 0  9998
2 23616  64.2244  75.8116 3136050 131.6794 259.8638  9.13943363151031

Volg SL-12 DEB in realtime met AllMySat

Download on the App Store